This demonstration page uses our WeatherBlox Daily Observations layout. Learn more.

41.55636, -103.73856

Hourly Observations for July 25, 2019

Temp ( °F °C ) Dew Point ( °F °C ) Humidity (%) Winds ( mph kmh ) Pressure ( in mb ) Visibility ( mi km ) Precip ( " mm )
12:58 am 00:58 Clear 81 27.3 48 8.7 31 31 SW 13 20 29.92 1013 10 16.0934 0 0
1:58 am 01:58 Mostly Cloudy 78 25.7 50 9.8 37 37 NNW 12 19 29.94 1014 10 16.0934 0 0
2:58 am 02:58 Cloudy 75 23.8 52 10.9 44 44 NNE 3 6 29.96 1014 10 16.0934 0 0
3:58 am 03:58 Mostly Cloudy 71 21.5 54 12.4 56 56 SSE 6 9 29.94 1014 10 16.0934 0 0
4:58 am 04:58 Mostly Cloudy 71 21.4 53 11.8 54 54 SW 13 20 29.93 1014 10 16.0934 0 0
5:58 am 05:58 Mostly Cloudy 72 22 52 10.9 49 49 SW 14 22 29.92 1013 10 16.0934 0 0
6:58 am 06:58 Windy with Rain Showers Likely 67 19.2 57 13.9 72 72 WSW 26 43 29.96 1015 10 16.0934 0 0
7:58 am 07:58 Mostly Cloudy 65 18.6 57 13.8 74 74 SW 17 28 29.92 1013 10 16.0934 0.02 0.508
8:58 am 08:58 Mostly Cloudy 65 18.5 57 13.8 74 74 W 13 20 29.93 1014 10 16.0934 0 0
9:58 am 09:58 Mostly Cloudy 67 19.5 55 12.9 66 66 WNW 13 20 29.94 1014 10 16.0934 0 0
10:58 am 10:58 Mostly Cloudy 65 18.2 56 13.1 72 72 W 9 15 29.95 1014 10 16.0934 0 0
11:58 am 11:58 Partly Cloudy 66 19.1 54 12.3 65 65 WNW 13 20 29.95 1014 10 16.0934 0 0
12:58 pm 12:58 Mostly Cloudy 69 20.8 54 12.4 59 59 WNW 14 22 29.96 1014 10 16.0934 0 0
1:58 pm 13:58 Partly Cloudy 71 21.9 54 12.3 55 55 NW 13 20 29.98 1015 10 16.0934 0 0
2:58 pm 14:58 Sunny 74 23.3 55 12.8 52 52 NW 15 24 30 1016 10 16.0934 0 0
3:58 pm 15:58 Sunny 78 25.5 54 12.4 44 44 NNW 13 20 30 1016 10 16.0934 0 0
4:58 pm 16:58 Sunny 79 26.1 57 13.8 47 47 NNE 9 15 30.01 1016 10 16.0934 0 0
5:58 pm 17:58 Sunny 80 26.4 57 14 46 46 NNW 5 7 30.02 1017 10 16.0934 0 0
6:58 pm 18:58 Sunny 82 27.8 57 13.7 42 42 N 3 6 30.01 1016 10 16.0934 0 0
7:58 pm 19:58 Sunny 82 27.9 54 12.3 38 38 NNE 3 6 29.99 1016 10 16.0934 0 0
8:58 pm 20:58 Sunny 83 28.6 51 10.8 33 33 ENE 6 9 29.98 1015 10 16.0934 0 0
9:58 pm 21:58 Sunny 84 29.1 50 9.9 30 30 SSE 3 6 29.96 1015 10 16.0934 0 0
10:58 pm 22:58 Sunny 87 30.4 47 8.4 25 25 N 8 13 29.95 1014 10 16.0934 0 0
11:58 pm 23:58 Sunny 85 29.5 52 11.3 32 32 E 13 20 29.92 1013 10 16.0934 0 0

Powered by AerisWeather